Location: Burbank
(38.7788°N, 114.0429°W)
Time: 20:35:46
(UTC+00:00)

S-56A Canister/Altair - Pass Details

Date: 12 May 2026
Orbit: 632 x 2484 km, 38.9° (Epoch: 8 June)

Event Time Altitude Azimuth Distance (km) Brightness Sun altitude
Rises 06:02:55 0° 258° (WSW) 2,911 10.7 -29.3°
Enters shadow 06:04:37 - 257° (WSW) 2,213 10.0 -29.5°
Reaches altitude 10° 06:05:05 10° 257° (WSW) 2,025 - -29.5°
Maximum altitude 06:09:34 83° 171° (S) 716 - -29.8°
Drops below altitude 10° 06:15:12 10° 83° (E) 2,526 - -30.3°
Sets 06:18:11 0° 83° (E) 3,707 - -30.5°
